Time,TemperatureF,DewpointF,PressureIn,WindDirection,WindDirectionDegrees,WindSpeedMPH,WindSpeedGustMPH,Humidity,HourlyPrecipIn,Conditions,Clouds,dailyrainin,SoftwareType,DateUTC
2013-09-30 00:05:00,47.8,47.0,30.01,West,266,0.0,0.0,98,0.00,,,0.00,weatherlink.com 1.10,2013-09-30 04:05:00,
2013-09-30 00:20:00,48.2,48.0,30.01,West,265,0.0,0.0,98,0.00,,,0.00,weatherlink.com 1.10,2013-09-30 04:20:00,
2013-09-30 00:35:00,48.0,48.0,30.01,West,266,0.0,0.0,98,0.00,,,0.00,weatherlink.com 1.10,2013-09-30 04:35:00,
2013-09-30 00:50:00,48.6,48.0,30.01,West,265,0.0,0.0,99,0.00,,,0.00,weatherlink.com 1.10,2013-09-30 04:50:00,
2013-09-30 01:20:00,47.5,47.0,30.01,West,265,0.0,1.0,98,0.00,,,0.00,weatherlink.com 1.10,2013-09-30 05:20:00,
2013-09-30 01:35:00,48.7,49.0,30.01,West,265,0.0,0.0,99,0.00,,,0.00,weatherlink.com 1.10,2013-09-30 05:35:00,
2013-09-30 01:50:00,50.9,51.0,30.01,West,265,0.0,0.0,99,0.00,,,0.00,weatherlink.com 1.10,2013-09-30 05:50:00,
2013-09-30 02:05:00,50.6,50.0,30.01,West,266,0.0,0.0,96,0.00,,,0.00,weatherlink.com 1.10,2013-09-30 06:05:00,
2013-09-30 02:20:00,50.2,49.0,30.00,West,266,0.0,0.0,97,0.00,,,0.00,weatherlink.com 1.10,2013-09-30 06:20:00,
2013-09-30 02:36:00,47.3,45.0,30.00,WSW,242,1.0,1.0,92,0.00,,,0.00,weatherlink.com 1.10,2013-09-30 06:36:00,
2013-09-30 02:51:00,46.0,45.0,30.00,SSW,199,0.0,2.0,97,0.00,,,0.00,weatherlink.com 1.10,2013-09-30 06:51:00,
2013-09-30 03:06:00,45.7,45.0,30.00,SSW,199,1.0,1.0,97,0.00,,,0.00,weatherlink.com 1.10,2013-09-30 07:06:00,
2013-09-30 03:21:00,45.6,45.0,29.99,SSE,147,2.0,2.0,98,0.00,,,0.00,weatherlink.com 1.10,2013-09-30 07:21:00,
2013-09-30 03:36:00,45.3,45.0,29.99,South,181,1.0,2.0,98,0.00,,,0.00,weatherlink.com 1.10,2013-09-30 07:36:00,
2013-09-30 03:51:00,45.5,45.0,29.99,SSW,212,0.0,1.0,98,0.00,,,0.00,weatherlink.com 1.10,2013-09-30 07:51:00,
2013-09-30 04:06:00,46.5,46.0,30.00,SSW,212,0.0,2.0,99,0.00,,,0.00,weatherlink.com 1.10,2013-09-30 08:06:00,
2013-09-30 04:21:00,47.0,47.0,30.00,SSW,212,1.0,1.0,99,0.00,,,0.00,weatherlink.com 1.10,2013-09-30 08:21:00,
2013-09-30 04:36:00,46.6,46.0,30.00,SSW,211,1.0,1.0,99,0.00,,,0.00,weatherlink.com 1.10,2013-09-30 08:36:00,
2013-09-30 04:51:00,46.0,46.0,30.00,SSW,212,1.0,2.0,98,0.00,,,0.00,weatherlink.com 1.10,2013-09-30 08:51:00,
2013-09-30 05:06:00,45.4,45.0,30.00,SSW,207,0.0,2.0,98,0.00,,,0.00,weatherlink.com 1.10,2013-09-30 09:06:00,
2013-09-30 05:21:00,44.7,44.0,30.00,SSW,208,1.0,1.0,97,0.00,,,0.00,weatherlink.com 1.10,2013-09-30 09:21:00,
2013-09-30 05:36:00,44.3,44.0,30.00,SSE,157,2.0,2.0,98,0.00,,,0.00,weatherlink.com 1.10,2013-09-30 09:36:00,
2013-09-30 05:52:00,44.0,44.0,30.00,SSE,154,0.0,3.0,99,0.00,,,0.00,weatherlink.com 1.10,2013-09-30 09:52:00,
2013-09-30 06:06:00,43.8,44.0,30.00,SW,217,1.0,2.0,99,0.00,,,0.00,weatherlink.com 1.10,2013-09-30 10:06:00,
2013-09-30 06:21:00,43.6,43.0,30.01,South,185,1.0,2.0,99,0.01,,,0.01,weatherlink.com 1.10,2013-09-30 10:21:00,
2013-09-30 06:36:00,43.3,43.0,30.01,SE,140,2.0,3.0,99,0.01,,,0.01,weatherlink.com 1.10,2013-09-30 10:36:00,
2013-09-30 06:51:00,43.3,43.0,30.01,SSE,153,2.0,2.0,99,0.01,,,0.01,weatherlink.com 1.10,2013-09-30 10:51:00,
2013-09-30 07:06:00,44.5,44.0,30.01,SSE,164,1.0,1.0,99,0.00,,,0.01,weatherlink.com 1.10,2013-09-30 11:06:00,
2013-09-30 07:21:00,45.2,45.0,30.02,South,173,0.0,1.0,99,0.00,,,0.01,weatherlink.com 1.10,2013-09-30 11:21:00,
2013-09-30 07:36:00,46.7,47.0,30.02,SW,223,0.0,1.0,99,0.00,,,0.01,weatherlink.com 1.10,2013-09-30 11:36:00,
2013-09-30 07:51:00,49.0,49.0,30.02,SW,222,0.0,1.0,99,0.00,,,0.01,weatherlink.com 1.10,2013-09-30 11:51:00,
2013-09-30 08:06:00,50.9,50.0,30.02,SW,222,0.0,1.0,97,0.00,,,0.01,weatherlink.com 1.10,2013-09-30 12:06:00,
2013-09-30 08:21:00,52.4,51.0,30.02,South,183,0.0,2.0,95,0.00,,,0.01,weatherlink.com 1.10,2013-09-30 12:21:00,
2013-09-30 08:36:00,53.7,52.0,30.02,SE,140,0.0,3.0,92,0.00,,,0.01,weatherlink.com 1.10,2013-09-30 12:36:00,
2013-09-30 08:51:00,55.3,53.0,30.03,South,185,0.0,1.0,90,0.00,,,0.01,weatherlink.com 1.10,2013-09-30 12:51:00,
2013-09-30 09:06:00,56.5,53.0,30.02,South,185,1.0,1.0,89,0.00,,,0.01,weatherlink.com 1.10,2013-09-30 13:06:00,
2013-09-30 09:21:00,58.5,55.0,30.02,South,185,0.0,1.0,87,0.00,,,0.01,weatherlink.com 1.10,2013-09-30 13:21:00,
2013-09-30 09:36:00,60.4,56.0,30.01,ESE,120,0.0,2.0,84,0.00,,,0.01,weatherlink.com 1.10,2013-09-30 13:36:00,
2013-09-30 09:51:00,61.6,57.0,30.02,West,280,0.0,4.0,84,0.00,,,0.01,weatherlink.com 1.10,2013-09-30 13:51:00,
2013-09-30 10:07:00,63.0,57.0,30.02,WNW,303,1.0,5.0,80,0.00,,,0.01,weatherlink.com 1.10,2013-09-30 14:07:00,
2013-09-30 10:22:00,64.4,57.0,30.01,West,270,1.0,5.0,78,0.00,,,0.01,weatherlink.com 1.10,2013-09-30 14:22:00,
2013-09-30 10:37:00,65.0,58.0,30.01,East,96,0.0,5.0,77,0.00,,,0.01,weatherlink.com 1.10,2013-09-30 14:37:00,
2013-09-30 10:52:00,66.7,58.0,30.01,West,266,0.0,4.0,73,0.00,,,0.01,weatherlink.com 1.10,2013-09-30 14:52:00,
2013-09-30 11:07:00,68.3,58.0,30.01,WNW,292,0.0,5.0,70,0.00,,,0.01,weatherlink.com 1.10,2013-09-30 15:07:00,
2013-09-30 11:22:00,68.5,59.0,30.00,East,93,2.0,4.0,71,0.00,,,0.01,weatherlink.com 1.10,2013-09-30 15:22:00,
2013-09-30 11:37:00,69.8,57.0,30.00,East,83,2.0,5.0,64,0.00,,,0.01,weatherlink.com 1.10,2013-09-30 15:37:00,
2013-09-30 11:52:00,70.5,56.0,29.99,ESE,116,2.0,4.0,60,0.00,,,0.01,weatherlink.com 1.10,2013-09-30 15:52:00,
2013-09-30 12:07:00,71.2,56.0,29.99,ENE,76,4.0,6.0,60,0.00,,,0.01,weatherlink.com 1.10,2013-09-30 16:07:00,
2013-09-30 12:22:00,71.4,57.0,29.99,East,83,4.0,5.0,61,0.00,,,0.01,weatherlink.com 1.10,2013-09-30 16:22:00,
2013-09-30 12:37:00,72.1,57.0,29.98,SE,137,3.0,4.0,59,0.00,,,0.01,weatherlink.com 1.10,2013-09-30 16:37:00,
2013-09-30 12:52:00,71.5,56.0,29.98,SSW,197,0.0,5.0,59,0.00,,,0.01,weatherlink.com 1.10,2013-09-30 16:52:00,
2013-09-30 13:07:00,72.0,54.0,29.97,South,184,0.0,7.0,54,0.00,,,0.01,weatherlink.com 1.10,2013-09-30 17:07:00,
2013-09-30 13:22:00,73.2,54.0,29.96,NE,55,3.0,5.0,51,0.00,,,0.01,weatherlink.com 1.10,2013-09-30 17:22:00,
2013-09-30 13:37:00,72.6,57.0,29.95,ENE,64,5.0,8.0,58,0.00,,,0.01,weatherlink.com 1.10,2013-09-30 17:37:00,
2013-09-30 13:52:00,73.4,54.0,29.95,WNW,297,2.0,4.0,50,0.00,,,0.01,weatherlink.com 1.10,2013-09-30 17:52:00,
2013-09-30 14:07:00,72.9,55.0,29.95,SSW,213,3.0,6.0,53,0.00,,,0.01,weatherlink.com 1.10,2013-09-30 18:07:00,
2013-09-30 14:22:00,73.5,57.0,29.95,ESE,112,2.0,8.0,57,0.00,,,0.01,weatherlink.com 1.10,2013-09-30 18:22:00,
2013-09-30 14:37:00,73.2,53.0,29.95,SSW,206,1.0,5.0,50,0.00,,,0.01,weatherlink.com 1.10,2013-09-30 18:37:00,
2013-09-30 14:52:00,73.7,53.0,29.94,SW,228,0.0,7.0,48,0.00,,,0.01,weatherlink.com 1.10,2013-09-30 18:52:00,
2013-09-30 15:07:00,74.9,53.0,29.94,WSW,242,1.0,3.0,47,0.00,,,0.01,weatherlink.com 1.10,2013-09-30 19:07:00,
2013-09-30 15:23:00,75.4,55.0,29.94,ENE,76,4.0,6.0,49,0.00,,,0.01,weatherlink.com 1.10,2013-09-30 19:23:00,
2013-09-30 15:38:00,74.1,56.0,29.93,ENE,78,4.0,5.0,54,0.00,,,0.01,weatherlink.com 1.10,2013-09-30 19:38:00,
2013-09-30 15:53:00,75.0,54.0,29.93,SSW,213,1.0,3.0,49,0.00,,,0.01,weatherlink.com 1.10,2013-09-30 19:53:00,
2013-09-30 16:08:00,74.0,55.0,29.93,ENE,61,3.0,5.0,52,0.00,,,0.01,weatherlink.com 1.10,2013-09-30 20:08:00,
2013-09-30 16:23:00,74.5,54.0,29.93,SE,140,3.0,5.0,49,0.00,,,0.01,weatherlink.com 1.10,2013-09-30 20:23:00,
2013-09-30 16:38:00,74.7,56.0,29.93,SSE,166,3.0,3.0,52,0.00,,,0.01,weatherlink.com 1.10,2013-09-30 20:38:00,
2013-09-30 16:53:00,73.8,53.0,29.93,SSE,159,4.0,5.0,49,0.00,,,0.01,weatherlink.com 1.10,2013-09-30 20:53:00,
2013-09-30 17:08:00,72.0,53.0,29.93,ESE,119,4.0,7.0,52,0.00,,,0.01,weatherlink.com 1.10,2013-09-30 21:08:00,
2013-09-30 17:23:00,71.6,53.0,29.93,SSE,147,3.0,7.0,53,0.00,,,0.01,weatherlink.com 1.10,2013-09-30 21:23:00,
2013-09-30 17:38:00,71.1,53.0,29.93,SSE,155,3.0,5.0,53,0.00,,,0.01,weatherlink.com 1.10,2013-09-30 21:38:00,
2013-09-30 17:53:00,70.5,52.0,29.93,SSE,160,2.0,3.0,52,0.00,,,0.01,weatherlink.com 1.10,2013-09-30 21:53:00,
2013-09-30 18:08:00,68.8,55.0,29.93,South,185,1.0,2.0,61,0.00,,,0.01,weatherlink.com 1.10,2013-09-30 22:08:00,
2013-09-30 18:23:00,64.6,55.0,29.93,South,185,0.0,1.0,70,0.00,,,0.01,weatherlink.com 1.10,2013-09-30 22:23:00,
2013-09-30 18:38:00,59.6,54.0,29.93,South,185,0.0,1.0,82,0.00,,,0.01,weatherlink.com 1.10,2013-09-30 22:38:00,
2013-09-30 18:53:00,59.1,54.0,29.93,South,190,0.0,1.0,82,0.00,,,0.01,weatherlink.com 1.10,2013-09-30 22:53:00,
2013-09-30 19:08:00,58.3,53.0,29.93,SSW,211,0.0,0.0,83,0.00,,,0.01,weatherlink.com 1.10,2013-09-30 23:08:00,
2013-09-30 19:24:00,54.1,51.0,29.93,SSW,212,0.0,0.0,88,0.00,,,0.01,weatherlink.com 1.10,2013-09-30 23:24:00,
2013-09-30 19:53:00,52.8,51.0,29.94,SSW,211,0.0,0.0,93,0.00,,,0.01,weatherlink.com 1.10,2013-09-30 23:53:00,
2013-09-30 20:08:00,51.4,50.0,29.94,SSW,211,0.0,0.0,93,0.00,,,0.01,weatherlink.com 1.10,2013-10-01 00:08:00,
2013-09-30 20:23:00,51.3,50.0,29.95,SSW,212,0.0,0.0,96,0.00,,,0.01,weatherlink.com 1.10,2013-10-01 00:23:00,
2013-09-30 20:38:00,51.7,51.0,29.95,SSW,212,1.0,1.0,96,0.00,,,0.01,weatherlink.com 1.10,2013-10-01 00:38:00,
2013-09-30 20:53:00,51.8,51.0,29.95,SSW,212,0.0,1.0,97,0.00,,,0.01,weatherlink.com 1.10,2013-10-01 00:53:00,
2013-09-30 21:08:00,50.3,49.0,29.95,SSW,209,1.0,2.0,95,0.00,,,0.01,weatherlink.com 1.10,2013-10-01 01:08:00,
2013-09-30 21:23:00,50.7,50.0,29.95,SSW,209,0.0,1.0,98,0.00,,,0.01,weatherlink.com 1.10,2013-10-01 01:23:00,
2013-09-30 21:38:00,49.6,49.0,29.94,SSW,204,0.0,2.0,96,0.00,,,0.01,weatherlink.com 1.10,2013-10-01 01:38:00,
2013-09-30 21:53:00,49.4,49.0,29.94,SSW,204,1.0,1.0,97,0.00,,,0.01,weatherlink.com 1.10,2013-10-01 01:53:00,
2013-09-30 22:08:00,49.9,49.0,29.94,SSW,195,2.0,3.0,97,0.00,,,0.01,weatherlink.com 1.10,2013-10-01 02:08:00,
2013-09-30 22:23:00,49.8,49.0,29.94,South,190,2.0,3.0,96,0.00,,,0.01,weatherlink.com 1.10,2013-10-01 02:23:00,
2013-09-30 22:38:00,49.4,49.0,29.94,South,190,1.0,2.0,97,0.00,,,0.01,weatherlink.com 1.10,2013-10-01 02:38:00,
2013-09-30 22:53:00,49.2,48.0,29.94,South,190,1.0,1.0,97,0.00,,,0.01,weatherlink.com 1.10,2013-10-01 02:53:00,
2013-09-30 23:08:00,49.4,49.0,29.94,South,190,0.0,1.0,97,0.00,,,0.01,weatherlink.com 1.10,2013-10-01 03:08:00,
2013-09-30 23:23:00,49.2,49.0,29.94,South,190,1.0,1.0,98,0.00,,,0.01,weatherlink.com 1.10,2013-10-01 03:23:00,
2013-09-30 23:38:00,48.9,48.0,29.94,South,190,2.0,2.0,96,0.00,,,0.01,weatherlink.com 1.10,2013-10-01 03:38:00,
2013-09-30 23:53:00,48.0,47.0,29.93,South,190,1.0,2.0,97,0.00,,,0.01,weatherlink.com 1.10,2013-10-01 03:53:00,